TimeAEST,TemperatureF,Dew PointF,Humidity,Sea Level PressureIn,VisibilityMPH,Wind Direction,Wind SpeedMPH,Gust SpeedMPH,PrecipitationIn,Events,Conditions,WindDirDegrees,DateUTC
12:00 AM,71,62,65,30.16,,South,11.5,,,,Overcast,170,2013-09-01 14:00:00
12:30 AM,71.6,60.8,69,30.12,6.2,South,11.5,-,N/A,,Scattered Clouds,170,2013-09-01 14:30:00
1:00 AM,70,61,67,30.14,,South,15.0,,,,,170,2013-09-01 15:00:00
1:00 AM,69.8,60.8,73,30.12,6.2,South,15.0,-,N/A,,Scattered Clouds,170,2013-09-01 15:00:00
1:30 AM,69.8,60.8,73,30.12,6.2,SSE,12.7,-,N/A,,Scattered Clouds,160,2013-09-01 15:30:00
2:00 AM,69.8,60.8,73,30.12,6.2,SSE,15.0,-,N/A,,Scattered Clouds,160,2013-09-01 16:00:00
2:30 AM,71.6,60.8,69,30.12,6.2,SSE,15.0,-,N/A,,Scattered Clouds,160,2013-09-01 16:30:00
3:00 AM,71,62,64,30.12,,SSE,11.5,,,,,160,2013-09-01 17:00:00
3:00 AM,71.6,60.8,69,30.09,6.2,SSE,11.5,-,N/A,,Scattered Clouds,160,2013-09-01 17:00:00
3:30 AM,69.8,62.6,78,30.09,6.2,SSE,9.2,-,N/A,,Partly Cloudy,150,2013-09-01 17:30:00
4:00 AM,71,62,67,30.12,,SSE,10.4,,,,,160,2013-09-01 18:00:00
4:00 AM,71.6,62.6,73,30.09,6.2,SSE,10.4,-,N/A,,Scattered Clouds,160,2013-09-01 18:00:00
4:30 AM,71.6,62.6,73,30.09,6.2,South,10.4,-,N/A,,Scattered Clouds,170,2013-09-01 18:30:00
5:00 AM,71.6,62.6,73,30.09,6.2,SSE,10.4,-,N/A,,Scattered Clouds,150,2013-09-01 19:00:00
5:30 AM,71.6,62.6,73,30.12,6.2,SSE,10.4,-,N/A,,Mostly Cloudy,160,2013-09-01 19:30:00
6:00 AM,71.6,62.6,73,30.12,6.2,South,10.4,-,N/A,,Scattered Clouds,170,2013-09-01 20:00:00
6:30 AM,71.6,62.6,73,30.12,6.2,SSE,11.5,-,N/A,,Scattered Clouds,160,2013-09-01 20:30:00
7:00 AM,73.4,60.8,65,30.15,6.2,South,12.7,-,N/A,,Partly Cloudy,170,2013-09-01 21:00:00
7:30 AM,75.2,60.8,61,30.15,6.2,SSE,11.5,-,N/A,,Partly Cloudy,150,2013-09-01 21:30:00
8:00 AM,75.2,62.6,65,30.18,6.2,SSE,15.0,-,N/A,,Scattered Clouds,160,2013-09-01 22:00:00
8:30 AM,77.0,59.0,54,30.18,6.2,SE,18.4,-,N/A,,Scattered Clouds,140,2013-09-01 22:30:00
9:00 AM,77,61,48,30.19,19,SE,20.7,,,,Partly Cloudy,140,2013-09-01 23:00:00
9:00 AM,77.0,60.8,57,30.18,6.2,SE,20.7,-,N/A,,Scattered Clouds,140,2013-09-01 23:00:00
9:30 AM,78.8,62.6,57,30.18,6.2,SE,20.7,-,N/A,,Scattered Clouds,140,2013-09-01 23:30:00
10:00 AM,79,61,45,30.20,,SE,20.7,,,,,140,2013-09-02 00:00:00
10:00 AM,78.8,60.8,54,30.18,6.2,SE,20.7,-,N/A,,Scattered Clouds,140,2013-09-02 00:00:00
10:30 AM,78.8,62.6,57,30.18,6.2,SSE,23.0,-,N/A,,Mostly Cloudy,150,2013-09-02 00:30:00
11:00 AM,78.8,60.8,54,30.18,6.2,SSE,21.9,-,N/A,,Mostly Cloudy,150,2013-09-02 01:00:00
11:30 AM,80.6,60.8,51,30.18,6.2,SE,21.9,-,N/A,,Scattered Clouds,130,2013-09-02 01:30:00
12:00 PM,82,62,40,30.17,19,SE,21.9,,,,Partly Cloudy,140,2013-09-02 02:00:00
12:00 PM,82.4,62.6,51,30.15,6.2,SE,21.9,-,N/A,,Scattered Clouds,140,2013-09-02 02:00:00
12:30 PM,80.6,60.8,51,30.15,6.2,SSE,24.2,-,N/A,,Scattered Clouds,150,2013-09-02 02:30:00
1:00 PM,82.4,60.8,48,30.12,6.2,SE,21.9,-,N/A,,Partly Cloudy,140,2013-09-02 03:00:00
1:20 PM,82.4,57.2,42,30.12,6.2,SE,18.4,29.9,N/A,,Partly Cloudy,140,2013-09-02 03:20:00
1:30 PM,82.4,59.0,45,30.12,6.2,SE,20.7,-,N/A,,Partly Cloudy,130,2013-09-02 03:30:00
2:00 PM,80.6,62.6,54,30.12,6.2,SE,25.3,-,N/A,,Partly Cloudy,140,2013-09-02 04:00:00
2:34 PM,82.4,62.6,51,30.09,6.2,SE,20.7,32.2,N/A,,Scattered Clouds,140,2013-09-02 04:34:00
3:00 PM,80,62,44,30.11,19,SE,21.9,,,,Partly Cloudy,140,2013-09-02 05:00:00
3:00 PM,78.8,62.6,57,30.09,6.2,SE,21.9,-,N/A,,Scattered Clouds,140,2013-09-02 05:00:00
3:30 PM,80.6,60.8,51,30.09,6.2,SE,21.9,-,N/A,,Scattered Clouds,140,2013-09-02 05:30:00
4:00 PM,78.8,62.6,57,30.09,6.2,SE,23.0,-,N/A,,Scattered Clouds,140,2013-09-02 06:00:00
4:30 PM,78.8,62.6,57,30.09,6.2,SE,20.7,-,N/A,,Scattered Clouds,130,2013-09-02 06:30:00
5:00 PM,75.2,66.2,73,30.09,6.2,SE,19.6,-,N/A,Rain,Light Rain Showers,130,2013-09-02 07:00:00
5:30 PM,71.6,66.2,83,30.09,6.2,SE,17.3,-,N/A,Rain,Light Rain Showers,140,2013-09-02 07:30:00
6:00 PM,70,65,79,30.12,4,ESE,20.7,,,,Overcast,110,2013-09-02 08:00:00
6:00 PM,69.8,64.4,83,30.09,5.6,ESE,20.7,-,N/A,Rain,Rain Showers,110,2013-09-02 08:00:00
6:30 PM,71.6,66.2,83,30.12,6.2,East,13.8,-,N/A,,Mostly Cloudy,100,2013-09-02 08:30:00
7:00 PM,72,65,72,30.13,,South,5.8,,,,,170,2013-09-02 09:00:00
7:00 PM,71.6,64.4,78,30.12,6.2,South,5.8,-,N/A,,Mostly Cloudy,170,2013-09-02 09:00:00
7:30 PM,71.6,64.4,78,30.12,6.2,SSE,16.1,-,N/A,,Mostly Cloudy,150,2013-09-02 09:30:00
8:00 PM,71.6,64.4,78,30.12,6.2,SSE,16.1,-,N/A,,Scattered Clouds,150,2013-09-02 10:00:00
8:30 PM,71.6,62.6,73,30.12,6.2,SE,18.4,-,N/A,,Mostly Cloudy,140,2013-09-02 10:30:00
9:00 PM,73,64,65,30.14,,SSE,21.9,,,,,150,2013-09-02 11:00:00
9:00 PM,73.4,64.4,73,30.12,6.2,SSE,21.9,-,N/A,,Scattered Clouds,150,2013-09-02 11:00:00
9:30 PM,73.4,64.4,73,30.12,6.2,SE,20.7,-,N/A,,Scattered Clouds,140,2013-09-02 11:30:00
10:00 PM,73,64,67,30.14,,SE,18.4,,,,,140,2013-09-02 12:00:00
10:00 PM,73.4,64.4,73,30.12,6.2,SE,18.4,-,N/A,,Mostly Cloudy,140,2013-09-02 12:00:00
10:30 PM,73.4,64.4,73,30.12,6.2,SE,18.4,-,N/A,,Mostly Cloudy,130,2013-09-02 12:30:00
11:00 PM,73.4,62.6,69,30.12,6.2,SE,21.9,-,N/A,Rain,Light Rain Showers,140,2013-09-02 13:00:00
11:34 PM,73.4,60.8,65,30.12,6.2,SE,21.9,33.4,N/A,,Mostly Cloudy,130,2013-09-02 13:34:00